• In Hungary
  • List of Countries
  • For 7 days
  • Water Temperature
  • Satellite Maps
  • Weather Map
  • News
  • Weather Widgets
  • user-avatar
    Login

    Hourly Weather Dubrovnoe

    Today, 21 September, Friday

    Time Temperature Precipitation Wind Pressure Humidity
    00:00 +16°C° 0.3 mm 2 mps 753 mmHg 90%
    01:00 +16°C° 0 mm 3 mps 754 mmHg 91%
    02:00 +16°C° 0 mm 3 mps 754 mmHg 92%
    03:00 +14°C° 0 mm 3 mps 754 mmHg 93%
    04:00 +14°C° 0 mm 4 mps 754 mmHg 93%
    05:00 +14°C° 0 mm 4 mps 755 mmHg 94%
    06:00 +13°C° 0 mm 4 mps 755 mmHg 94%
    07:00 +14°C° 0 mm 5 mps 756 mmHg 90%
    08:00 +15°C° 0 mm 5 mps 756 mmHg 85%
    09:00 +16°C° 0 mm 6 mps 757 mmHg 79%
    10:00 +16°C° 0 mm 6 mps 757 mmHg 77%
    11:00 +17°C° 0 mm 5 mps 758 mmHg 74%
    12:00 +17°C° 0 mm 5 mps 758 mmHg 72%
    13:00 +19°C° 0 mm 5 mps 758 mmHg 69%
    14:00 +19°C° 0 mm 5 mps 759 mmHg 67%
    15:00 +20°C° 0 mm 4 mps 759 mmHg 64%
    16:00 +19°C° 0 mm 4 mps 759 mmHg 68%
    17:00 +18°C° 0 mm 3 mps 760 mmHg 73%
    18:00 +17°C° 0 mm 2 mps 760 mmHg 77%
    19:00 +16°C° 0 mm 2 mps 760 mmHg 81%
    20:00 +16°C° 0 mm 2 mps 760 mmHg 85%
    21:00 +15°C° 0 mm 2 mps 761 mmHg 89%
    22:00 +15°C° 0 mm 2 mps 761 mmHg 90%
    23:00 +14°C° 0 mm 2 mps 761 mmHg 91%

    Tomorrow, 22 September, Saturday

    Time Temperature Precipitation Wind Pressure Humidity
    00:00 +14°C° 0 mm 1 mps 762 mmHg 92%
    01:00 +14°C° 0 mm 1 mps 762 mmHg 92%
    02:00 +14°C° 0 mm 1 mps 762 mmHg 92%
    03:00 +13°C° 0 mm 1 mps 762 mmHg 92%
    04:00 +13°C° 0 mm 1 mps 762 mmHg 92%
    05:00 +13°C° 0 mm 1 mps 762 mmHg 92%
    06:00 +13°C° 0 mm 1 mps 763 mmHg 92%
    07:00 +15°C° 0 mm 1 mps 763 mmHg 85%
    08:00 +18°C° 0 mm 1 mps 763 mmHg 78%
    09:00 +19°C° 0 mm 2 mps 763 mmHg 71%
    10:00 +20°C° 0 mm 2 mps 763 mmHg 66%
    11:00 +21°C° 0 mm 2 mps 763 mmHg 61%
    12:00 +24°C° 0 mm 2 mps 763 mmHg 57%
    13:00 +24°C° 0 mm 2 mps 762 mmHg 55%
    14:00 +24°C° 0 mm 2 mps 762 mmHg 53%
    15:00 +25°C° 0 mm 2 mps 762 mmHg 51%
    16:00 +24°C° 0 mm 2 mps 762 mmHg 56%
    17:00 +21°C° 0 mm 2 mps 762 mmHg 60%
    18:00 +20°C° 0 mm 2 mps 762 mmHg 65%
    19:00 +19°C° 0 mm 2 mps 762 mmHg 67%
    20:00 +19°C° 0 mm 2 mps 762 mmHg 69%
    21:00 +18°C° 0 mm 2 mps 762 mmHg 71%
    22:00 +17°C° 0 mm 2 mps 762 mmHg 73%
    23:00 +17°C° 0 mm 2 mps 762 mmHg 74%

    Day after tomorrow, 23 September, Sunday

    Time Temperature Precipitation Wind Pressure Humidity
    00:00 +17°C° 0 mm 2 mps 762 mmHg 75%
    01:00 +16°C° 0 mm 2 mps 762 mmHg 77%
    02:00 +16°C° 0 mm 1 mps 762 mmHg 78%
    03:00 +16°C° 0 mm 1 mps 762 mmHg 79%
    04:00 +15°C° 0 mm 1 mps 761 mmHg 79%
    05:00 +15°C° 0 mm 2 mps 761 mmHg 80%
    06:00 +15°C° 0 mm 2 mps 761 mmHg 81%
    07:00 +17°C° 0 mm 2 mps 761 mmHg 73%
    08:00 +19°C° 0 mm 3 mps 761 mmHg 65%
    09:00 +21°C° 0 mm 4 mps 760 mmHg 58%
    10:00 +22°C° 0 mm 4 mps 760 mmHg 54%
    11:00 +23°C° 0 mm 5 mps 760 mmHg 50%
    12:00 +25°C° 0 mm 5 mps 759 mmHg 46%
    13:00 +25°C° 0 mm 5 mps 759 mmHg 44%
    14:00 +25°C° 0 mm 5 mps 758 mmHg 42%
    15:00 +25°C° 0 mm 5 mps 758 mmHg 41%
    16:00 +23°C° 0 mm 5 mps 758 mmHg 43%
    17:00 +21°C° 0 mm 4 mps 757 mmHg 44%
    18:00 +20°C° 0 mm 4 mps 757 mmHg 46%
    19:00 +19°C° 0 mm 4 mps 757 mmHg 43%
    20:00 +18°C° 0 mm 4 mps 756 mmHg 40%
    21:00 +17°C° 0 mm 4 mps 756 mmHg 36%
    22:00 +17°C° 0 mm 4 mps 755 mmHg 36%
    23:00 +15°C° 0 mm 4 mps 755 mmHg 36%

    24 September, Monday

    Time Temperature Precipitation Wind Pressure Humidity
    00:00 +15°C° 0 mm 4 mps 754 mmHg 35%
    01:00 +15°C° 0 mm 5 mps 753 mmHg 38%
    02:00 +15°C° 0 mm 5 mps 753 mmHg 40%
    03:00 +15°C° 0 mm 5 mps 752 mmHg 43%
    04:00 +15°C° 0 mm 5 mps 752 mmHg 45%
    05:00 +15°C° 0 mm 5 mps 751 mmHg 47%
    06:00 +15°C° 0 mm 6 mps 751 mmHg 49%
    07:00 +15°C° 0.9 mm 6 mps 750 mmHg 56%
    08:00 +15°C° 0.9 mm 6 mps 750 mmHg 63%
    09:00 +15°C° 0.9 mm 6 mps 750 mmHg 70%
    10:00 +14°C° 1.8 mm 6 mps 750 mmHg 74%
    11:00 +13°C° 1.8 mm 6 mps 751 mmHg 78%
    12:00 +13°C° 1.8 mm 6 mps 751 mmHg 82%
    13:00 +13°C° 0 mm 6 mps 751 mmHg 77%
    14:00 +12°C° 0 mm 7 mps 752 mmHg 73%
    15:00 +12°C° 0 mm 7 mps 752 mmHg 69%
    16:00 +13°C° 0 mm 6 mps 752 mmHg 70%
    17:00 +12°C° 0 mm 5 mps 753 mmHg 70%
    18:00 +12°C° 0 mm 4 mps 753 mmHg 71%
    19:00 +11°C° 0 mm 3 mps 753 mmHg 74%
    20:00 +11°C° 0 mm 3 mps 754 mmHg 78%
    21:00 +10°C° 0 mm 2 mps 754 mmHg 81%
    22:00 +10°C° 0 mm 2 mps 754 mmHg 82%
    23:00 +10°C° 0 mm 2 mps 754 mmHg 83%

    25 September, Tuesday

    Time Temperature Precipitation Wind Pressure Humidity
    00:00 +9°C° 0 mm 2 mps 754 mmHg 84%
    01:00 +9°C° 0 mm 2 mps 754 mmHg 83%
    02:00 +9°C° 0 mm 2 mps 754 mmHg 83%
    03:00 +9°C° 0 mm 2 mps 754 mmHg 82%
    04:00 +9°C° 0 mm 2 mps 754 mmHg 81%
    05:00 +9°C° 0 mm 3 mps 753 mmHg 80%
    06:00 +9°C° 0 mm 3 mps 753 mmHg 79%
    07:00 +10°C° 0.3 mm 4 mps 753 mmHg 75%
    08:00 +10°C° 0.3 mm 6 mps 752 mmHg 72%
    09:00 +11°C° 0.3 mm 7 mps 752 mmHg 68%
    10:00 +12°C° 0.7 mm 7 mps 752 mmHg 69%
    11:00 +12°C° 0.7 mm 8 mps 751 mmHg 71%
    12:00 +12°C° 0.7 mm 8 mps 751 mmHg 72%
    13:00 +12°C° 0.1 mm 8 mps 751 mmHg 69%
    14:00 +14°C° 0.1 mm 7 mps 750 mmHg 66%
    15:00 +14°C° 0.1 mm 6 mps 750 mmHg 64%
    16:00 +14°C° 0.1 mm 6 mps 750 mmHg 69%
    17:00 +13°C° 0.1 mm 6 mps 750 mmHg 74%
    18:00 +13°C° 0.1 mm 6 mps 750 mmHg 79%
    19:00 +11°C° 0 mm 6 mps 750 mmHg 79%
    20:00 +10°C° 0 mm 5 mps 750 mmHg 79%
    21:00 +10°C° 0 mm 5 mps 750 mmHg 78%
    22:00 +10°C° 0 mm 6 mps 750 mmHg 76%
    23:00 +10°C° 0 mm 6 mps 750 mmHg 74%

    26 September, Wednesday

    Time Temperature Precipitation Wind Pressure Humidity
    00:00 +10°C° 0 mm 6 mps 750 mmHg 72%
    01:00 +9°C° 0 mm 6 mps 751 mmHg 73%
    02:00 +8°C° 0 mm 7 mps 751 mmHg 74%
    03:00 +8°C° 0 mm 7 mps 751 mmHg 75%
    04:00 +6°C° 0 mm 7 mps 751 mmHg 75%
    05:00 +6°C° 0 mm 7 mps 752 mmHg 76%
    06:00 +6°C° 0 mm 7 mps 752 mmHg 77%
    07:00 +7°C° 0 mm 8 mps 752 mmHg 72%
    08:00 +9°C° 0 mm 8 mps 753 mmHg 68%
    09:00 +10°C° 0 mm 9 mps 753 mmHg 64%
    10:00 +10°C° 0 mm 8 mps 753 mmHg 63%
    11:00 +10°C° 0 mm 8 mps 754 mmHg 62%
    12:00 +10°C° 0 mm 8 mps 754 mmHg 61%
    13:00 +10°C° 0 mm 8 mps 755 mmHg 61%
    14:00 +10°C° 0 mm 7 mps 755 mmHg 61%
    15:00 +10°C° 0 mm 7 mps 756 mmHg 61%
    16:00 +10°C° 0 mm 6 mps 756 mmHg 63%
    17:00 +9°C° 0 mm 5 mps 756 mmHg 65%
    18:00 +8°C° 0 mm 4 mps 757 mmHg 68%
    19:00 +8°C° 0 mm 4 mps 757 mmHg 71%
    20:00 +7°C° 0 mm 4 mps 758 mmHg 74%
    21:00 +7°C° 0 mm 3 mps 758 mmHg 77%
    22:00 +7°C° 0 mm 3 mps 758 mmHg 78%
    23:00 +5°C° 0 mm 3 mps 758 mmHg 79%
    Show more